TimeMST,TemperatureF,Dew PointF,Humidity,Sea Level PressureIn,VisibilityMPH,Wind Direction,Wind SpeedMPH,Gust SpeedMPH,PrecipitationIn,Events,Conditions,WindDirDegrees,DateUTC
12:53 AM,37.0,19.0,48,30.03,10.0,SSW,18.4,-,N/A,,Clear,210,2013-01-06 07:53:00
1:53 AM,37.9,18.0,45,30.00,10.0,SW,17.3,26.5,N/A,,Clear,220,2013-01-06 08:53:00
2:53 AM,36.0,18.0,48,30.00,10.0,South,11.5,-,N/A,,Clear,180,2013-01-06 09:53:00
3:53 AM,35.1,18.0,50,29.98,10.0,SSW,19.6,-,N/A,,Clear,200,2013-01-06 10:53:00
4:53 AM,36.0,18.0,48,29.98,10.0,SW,21.9,-,N/A,,Clear,220,2013-01-06 11:53:00
5:53 AM,36.0,17.1,46,29.95,10.0,SW,19.6,26.5,N/A,,Clear,230,2013-01-06 12:53:00
6:53 AM,36.0,17.1,46,29.95,10.0,SW,17.3,-,N/A,,Clear,220,2013-01-06 13:53:00
7:53 AM,36.0,19.9,52,29.94,10.0,SSW,23.0,-,N/A,,Clear,210,2013-01-06 14:53:00
8:53 AM,37.0,21.9,54,29.93,10.0,SW,24.2,-,N/A,,Clear,220,2013-01-06 15:53:00
9:53 AM,39.9,21.9,49,29.95,10.0,SW,25.3,33.4,N/A,,Clear,220,2013-01-06 16:53:00
10:53 AM,39.9,24.1,53,29.95,10.0,SSW,23.0,-,N/A,,Clear,210,2013-01-06 17:53:00
11:53 AM,39.9,24.1,53,29.91,10.0,SW,23.0,35.7,N/A,,Clear,220,2013-01-06 18:53:00
12:53 PM,42.1,26.1,53,29.88,10.0,SW,25.3,31.1,N/A,,Clear,220,2013-01-06 19:53:00
1:53 PM,43.0,25.0,49,29.87,10.0,SSW,23.0,31.1,N/A,,Clear,210,2013-01-06 20:53:00
2:53 PM,43.0,25.0,49,29.88,10.0,SW,20.7,27.6,N/A,,Clear,230,2013-01-06 21:53:00
3:53 PM,39.9,24.1,53,29.88,10.0,SW,25.3,33.4,N/A,,Clear,230,2013-01-06 22:53:00
4:53 PM,37.9,23.0,55,29.90,10.0,SW,27.6,36.8,N/A,,Clear,230,2013-01-06 23:53:00
5:53 PM,36.0,21.9,57,29.92,10.0,SW,21.9,-,N/A,,Clear,230,2013-01-07 00:53:00
6:53 PM,36.0,21.0,55,29.94,10.0,SW,24.2,33.4,N/A,,Clear,230,2013-01-07 01:53:00
7:53 PM,33.1,19.9,59,29.95,10.0,SW,19.6,-,N/A,,Clear,230,2013-01-07 02:53:00
8:53 PM,35.1,19.0,52,29.94,10.0,SW,27.6,34.5,N/A,,Clear,230,2013-01-07 03:53:00
9:53 PM,36.0,19.0,50,29.91,10.0,SW,26.5,33.4,N/A,,Clear,230,2013-01-07 04:53:00
10:53 PM,35.1,19.0,52,29.93,10.0,SW,25.3,33.4,N/A,,Clear,230,2013-01-07 05:53:00
11:53 PM,35.1,19.9,54,29.94,10.0,SW,26.5,34.5,N/A,,Clear,220,2013-01-07 06:53:00